THORAD AGENA D DEB, 4945

Orbit data source: Space-Track

THORAD AGENA D DEB, 4945 is space debris in SSO originally from a launch on Wed, 08 Apr 1970 UTC launched from the Air Force Western Test Range (AFWTR). Debris objects in space refer to the collection of defunct objects orbiting the Earth. Examples of debris include non-operational satellites, rocket bodies, and fragments generated from explosions, collisions, or faulty payload assembly.

Loading next visibility...
Identifier
4945, 1970-025GF
Orbit
SSO
Country
Flag of USUS
Related business
Manufacturer
Unknown
Mission
Spacecraft
Bus & Motor
Unknown
Mass
Unknown
Launch date (UTC)
1970-04-08 (56 years ago)
Launch vehicle
Unknown
Launch site
Air Force Western Test Range (AFWTR)
Object type
Payload
Rocket body
Debris
Shape & HBR
Unknown shape, 0.1 m
Radar Cross Section
Medium (>0.1 m² and <1 m²)

Expand to show TLE details & history
Last TLE update: 9 hours ago

TLE from 9 hours ago
0 THORAD AGENA D DEB
1  4945U 70025GF  26167.05167059  .00001640  00000-0  12078-2 0  9992
2  4945  99.8667 218.5750 0091651 120.1123 240.9160 13.95180585795030
Epoch: 2026-06-16T01:14Z
TLE epoch observation values (Epoch: 2026-06-16T01:14:24.338Z)
Latitude
-0.00003°
Longitude
-64.35565°
Altitude
946.316 km
Speed
7.362 km/s
True Right ascension
14h 34m 18s
True Declination
0° 00' 00"
Sunlit
Object was in full shadow at epoch
Visualization orbit readout
Latitude
Unknown
Longitude
Unknown
Altitude
Unknown
Speed
Unknown
Apparent Right ascension
Unknown
Apparent Declination
Unknown
Sunlit
N/A
Visualization observer readout
Local Sidereal Time
21:15:55
Azimuth
Unknown
Elevation
Unknown
Doppler factor
Unknown
Orbital elements
Apogee altitude
974.558 km
Perigee altitude
841.006 km
Semi-major axis
7,285.919 km
Eccentricity
0.00917
Inclination
99.8667°
RAAN
218.575°
Arg. of periapsis
120.1123°
True anomaly
240.00331°
Mean anomaly
240.916°
Eccentric anomaly
240.45914°
Mean motion
3.48993 °/min
Orbital period
103.15 mins
BSTAR
0.0012078

Documentation

Showing up to 5 results
|